[[{"header":{"parameterUnit":"m.s-1","parameterCategory":1,"la1":30.2991,"la2":30.254,"lo1":-89.0895,"lo2":-89.0444,"dy":0.0017,"dx":0.0017,"nx":28,"ny":28,"refTime":"2025-08-30T21:00:00:Z","depth":0,"parameterNumber":2,"parameterNumberName":"U-component_of_WINDS"},"data":[0,0,0,0,0,0,0,0,0,0,0,0,0,0,0,0,0,0,0,0,0,0,0,0,0,0,0,0,0,0,0,0,0,0,0,0,0,0,0,0,0,0,0,0,0,0,0,0,0,0,0,0,0,0,0,0,0,0,-1.6771,-1.6771,0,-1.6759,-1.6759,-1.6759,-1.6668,-1.6665,-1.6663,-1.6661,-1.6654,-1.6656,-1.6658,0,0,0,0,0,0,0,0,0,0,0,0,0,-1.6723,-1.6724,-1.6771,-1.6771,-1.6771,-1.6759,-1.6759,-1.6758,-1.6668,-1.6665,-1.6663,-1.666,-1.6654,-1.6656,-1.6658,0,0,0,0,0,0,0,0,0,0,0,0,0,-1.6731,-1.6725,-1.6771,-1.6724,-1.6719,-1.6759,-1.6759,-1.6758,-1.6669,-1.6665,-1.6662,-1.6659,-1.6653,-1.6656,-1.6658,-1.6743,0,0,-1.6667,-1.6668,0,0,0,0,0,0,0,0,-1.6731,-1.6733,-1.6731,-1.6727,-1.6722,-1.6711,-1.6739,-1.6754,-1.6669,-1.6688,-1.6661,-1.6657,-1.6676,-1.6677,-1.6682,-1.6743,-1.6743,-1.6667,-1.6669,-1.667,-1.6671,0,0,0,0,0,0,0,-1.673,-1.6733,-1.6766,-1.6731,-1.6726,-1.6706,-1.6703,-1.6741,-1.6701,-1.6686,-1.668,-1.6679,-1.6673,-1.668,-1.6681,-1.6743,-1.6667,-1.667,-1.6672,-1.6673,-1.6878,-1.6881,0,0,0,0,0,0,-1.6735,-1.6733,-1.6767,-1.6766,-1.6718,-1.671,-1.6706,-1.6718,-1.6701,-1.6695,-1.6682,-1.6675,-1.6676,-1.6678,-1.6681,-1.6782,-1.667,-1.6673,-1.6675,-1.6874,-1.6878,-1.6883,0,0,0,0,0,0,-1.6735,-1.6739,-1.6767,-1.6748,-1.675,-1.6714,-1.6728,-1.672,-1.6726,-1.6697,-1.669,-1.6695,-1.6674,-1.6677,-1.6729,-1.678,-1.6674,-1.6677,-1.687,-1.6875,-1.6881,-1.6984,0,0,0,0,0,0,-1.6734,-1.6739,-1.6769,-1.6749,-1.6751,-1.6814,-1.6731,-1.6722,-1.6731,-1.6721,-1.6708,-1.6703,-1.6671,-1.6725,-1.6732,-1.6782,-1.6679,-1.6865,-1.6872,-1.6879,-1.6975,-1.6992,-1.7006,0,0,0,0,0,-1.6732,-1.6799,-1.6771,-1.6776,-1.6787,-1.6817,-1.6818,-1.6779,-1.6735,-1.6766,-1.6749,-1.6703,-1.6774,-1.6732,-1.6738,-1.679,-1.6861,-1.687,-1.6878,-1.6969,-1.6989,-1.7006,0,0,0,0,0,0,-1.6828,-1.6795,-1.6764,-1.6826,-1.6825,-1.6801,-1.6839,-1.6801,-1.6813,-1.6804,-1.6757,-1.6755,-1.6816,-1.6808,-1.6761,-1.6874,-1.681,-1.682,-1.6877,-1.6895,-1.691,-1.6912,-1.6681,0,0,0,0,0,-1.6856,-1.688,-1.6851,-1.6909,-1.691,-1.6875,-1.6886,-1.6856,-1.6854,-1.6853,-1.6839,-1.684,-1.6863,-1.6878,-1.6897,-1.6974,-1.6972,-1.7014,-1.7029,-1.7042,-1.7051,-1.7095,-1.7114,-1.691,-1.691,-1.691,0,0,-1.6914,-1.69,-1.6918,-1.6928,-1.6923,-1.6952,-1.6875,-1.6908,-1.693,-1.6859,-1.6907,-1.6898,-1.6896,-1.6962,-1.699,-1.6958,-1.7108,-1.7052,-1.7063,-1.7065,-1.7106,-1.7125,-1.7143,-1.6916,-1.6915,-1.6914,0,0,-1.7036,-1.7026,-1.7074,-1.7072,-1.7065,-1.7042,-1.7054,-1.7037,-1.7028,-1.7076,-1.7024,-1.7051,-1.7089,-1.7092,-1.7098,-1.7224,-1.7185,-1.7232,-1.7313,-1.7356,-1.7372,-1.7386,-1.7434,-1.7452,-1.7242,-1.7242,-1.7242,0,-1.711,-1.7149,-1.7104,-1.7142,-1.7149,-1.7085,-1.7136,-1.7136,-1.7137,-1.7145,-1.7108,-1.7158,-1.7152,-1.722,-1.7251,-1.7257,-1.7272,-1.7233,-1.7373,-1.7387,-1.7399,-1.7445,-1.7463,-1.7248,-1.7247,-1.7247,-1.7246,0,-1.7242,-1.727,-1.7311,-1.7313,-1.7325,-1.7368,-1.7333,-1.7352,-1.7322,-1.7304,-1.7356,-1.7347,-1.7365,-1.7379,-1.735,-1.7443,-1.7424,-1.7381,-1.7316,-1.7426,-1.7468,-1.7484,-1.7257,-1.7254,-1.7253,-1.7251,0,0,-1.7422,-1.74,-1.7416,-1.7418,-1.7408,-1.743,-1.7473,-1.7489,-1.7507,-1.7511,-1.7548,-1.7584,-1.7546,-1.7553,-1.7524,-1.7562,-1.7667,-1.7515,-1.7514,-1.7546,-1.7774,-1.7808,-1.7828,-1.7641,-1.7644,-1.7646,-1.7775,0,-1.7541,-1.761,-1.7573,-1.7648,-1.7676,-1.7618,-1.7656,-1.7656,-1.7641,-1.7665,-1.7649,-1.7677,-1.7622,-1.7626,-1.7661,-1.7647,-1.7713,-1.7637,-1.7678,-1.768,-1.7681,-1.7849,-1.7884,-1.8006,-1.7791,-1.7794,-1.7796,0,-1.7688,-1.7697,-1.7776,-1.7764,-1.7774,-1.7808,-1.7822,-1.7844,-1.7845,-1.7832,-1.7842,-1.7806,-1.785,-1.7786,-1.7849,-1.7799,-1.7813,-1.781,-1.7814,-1.7817,-1.7745,-1.786,-1.8043,-1.8063,-1.782,-1.7818,-1.7817,0,-1.7814,-1.7847,-1.7899,-1.7902,-1.7888,-1.7915,-1.7911,-1.7907,-1.7921,-1.7934,-1.7943,-1.7962,-1.7973,-1.799,-1.7961,-1.7916,-1.803,-1.7962,-1.8023,-1.8024,-1.805,-1.8049,-1.8241,-1.8057,-1.8057,-1.8057,-1.8056,0,-1.7951,-1.8002,-1.7956,-1.7988,-1.8045,-1.8003,-1.8062,-1.8052,-1.805,-1.8082,-1.8033,-1.8065,-1.8024,-1.8053,-1.8031,-1.8089,-1.8093,-1.8087,-1.8081,-1.8092,-1.8093,-1.8102,-1.8093,-1.8062,-1.8061,-1.806,-1.8059,0,-1.8102,-1.8073,-1.8126,-1.8109,-1.8106,-1.8149,-1.8136,-1.8168,-1.815,-1.8191,-1.8199,-1.8173,-1.8205,-1.8178,-1.8208,-1.8194,-1.8272,-1.8252,-1.8271,-1.8266,-1.833,-1.8326,-1.8536,-1.8563,-1.836,-1.8362,-1.8364,0,-1.8192,-1.823,-1.8218,-1.8235,-1.8233,-1.8261,-1.8275,-1.8237,-1.8253,-1.8259,-1.829,-1.8318,-1.8337,-1.8392,-1.8377,-1.8402,-1.8384,-1.8456,-1.8388,-1.8399,-1.8389,-1.8387,-1.8393,-1.8471,-1.8473,-1.8475,-1.8477,0,-1.8356,-1.8341,-1.836,-1.8377,-1.8394,-1.8405,-1.8413,-1.8431,-1.8392,-1.8414,-1.8445,-1.8461,-1.8493,-1.8522,-1.8542,-1.8541,-1.8505,-1.8498,-1.8514,-1.8527,-1.8537,-1.8535,-1.8311,-1.8494,-1.8492,-1.8491,-1.849,-1.8489,-1.8481,-1.8513,-1.851,-1.8535,-1.8537,-1.8546,-1.8575,-1.8562,-1.8587,-1.8608,-1.8585,-1.8625,-1.8628,-1.8651,-1.8656,-1.8688,-1.8658,-1.8681,-1.8687,-1.8694,-1.8704,-1.8531,-1.8691,-1.8691,-1.869,-1.869,-1.869,0,-1.8644,-1.864,-1.8663,-1.8676,-1.8697,-1.8658,-1.8666,-1.8687,-1.8721,-1.8726,-1.8747,-1.8786,-1.8815,-1.8804,-1.883,-1.8859,-1.8843,-1.8867,-1.8865,-1.8867,-1.8727,-1.8712,-1.888,-1.888,-1.888,-1.888,-1.888,-1.888,-1.8732,-1.8785,-1.877,-1.8825,-1.8821,-1.8857,-1.8865,-1.8875,-1.888,-1.8924,-1.8947,-1.8939,-1.894,-1.8966,-1.8993,-1.8989,-1.9002,-1.9034,-1.9025,-1.8895,-1.8876,-1.8858,-1.8843,-1.9036,-1.9037,-1.9161,-1.9162,-1.9163]},{"header":{"parameterUnit":"m.s-1","parameterCategory":1,"la1":30.2991,"la2":30.254,"lo1":-89.0895,"lo2":-89.0444,"dy":0.0017,"dx":0.0017,"nx":28,"ny":28,"refTime":"2025-08-30T21:00:00:Z","depth":0,"parameterNumber":3,"parameterNumberName":"V-component_of_WINDS"},"data":[0,0,0,0,0,0,0,0,0,0,0,0,0,0,0,0,0,0,0,0,0,0,0,0,0,0,0,0,0,0,0,0,0,0,0,0,0,0,0,0,0,0,0,0,0,0,0,0,0,0,0,0,0,0,0,0,0,0,1.5467,1.5468,0,1.5575,1.5576,1.5577,1.5654,1.5655,1.5655,1.5656,1.5761,1.5764,1.5766,0,0,0,0,0,0,0,0,0,0,0,0,0,1.5321,1.5323,1.5467,1.5468,1.5469,1.5574,1.5576,1.5577,1.5654,1.5655,1.5656,1.5656,1.5761,1.5763,1.5766,0,0,0,0,0,0,0,0,0,0,0,0,0,1.5402,1.5324,1.5466,1.552,1.5526,1.5574,1.5576,1.5578,1.5654,1.5655,1.5656,1.5657,1.576,1.5763,1.5766,1.5767,0,0,1.5776,1.5778,0,0,0,0,0,0,0,0,1.5397,1.5407,1.5511,1.5517,1.5524,1.5602,1.5563,1.5641,1.5654,1.5605,1.5656,1.5657,1.5707,1.5715,1.5733,1.5772,1.5777,1.5777,1.5779,1.578,1.5781,0,0,0,0,0,0,0,1.5391,1.5403,1.5509,1.5512,1.552,1.5537,1.555,1.5578,1.5649,1.561,1.5615,1.5627,1.5711,1.573,1.5736,1.5778,1.5777,1.578,1.5782,1.5783,1.582,1.5819,0,0,0,0,0,0,1.5378,1.5398,1.5506,1.5512,1.5462,1.5539,1.5553,1.5576,1.5649,1.5662,1.5626,1.5631,1.5723,1.5732,1.574,1.5744,1.578,1.5783,1.5785,1.5821,1.582,1.5819,0,0,0,0,0,0,1.5375,1.5387,1.5501,1.5457,1.5473,1.5541,1.5565,1.5577,1.5596,1.5662,1.5675,1.5633,1.5725,1.5735,1.576,1.5749,1.5785,1.5788,1.5823,1.5821,1.582,1.5752,0,0,0,0,0,0,1.537,1.5385,1.5388,1.5456,1.5475,1.5521,1.5565,1.5579,1.5602,1.5609,1.5672,1.5683,1.5726,1.5754,1.5763,1.5754,1.579,1.5824,1.5822,1.582,1.5756,1.5749,1.5743,0,0,0,0,0,1.5365,1.5365,1.5388,1.5401,1.548,1.552,1.5531,1.5582,1.5601,1.5603,1.5645,1.5681,1.5749,1.5756,1.5766,1.5758,1.5825,1.5822,1.582,1.5759,1.575,1.5743,0,0,0,0,0,0,1.5293,1.5375,1.5401,1.5424,1.5465,1.5533,1.5538,1.5572,1.5607,1.5611,1.5672,1.5685,1.5702,1.5733,1.574,1.5761,1.5791,1.5791,1.5741,1.5733,1.5726,1.5718,1.5793,0,0,0,0,0,1.528,1.5307,1.5377,1.539,1.5409,1.5469,1.5489,1.5525,1.5569,1.5586,1.563,1.567,1.57,1.5718,1.575,1.5761,1.5774,1.576,1.5753,1.5748,1.5746,1.5751,1.5745,1.5812,1.5812,1.5812,0,0,1.5252,1.5301,1.5314,1.5376,1.5412,1.5437,1.5484,1.5509,1.5527,1.559,1.5615,1.5648,1.5696,1.5713,1.5723,1.5739,1.5731,1.5745,1.574,1.5742,1.5748,1.5742,1.5736,1.581,1.5811,1.5811,0,0,1.5215,1.5256,1.527,1.5304,1.5358,1.5398,1.5401,1.5465,1.5489,1.5516,1.5562,1.5584,1.5635,1.5667,1.569,1.5661,1.5694,1.567,1.5635,1.5639,1.5634,1.5629,1.5616,1.5611,1.5668,1.5668,1.5668,0,1.5174,1.5216,1.5272,1.5294,1.5318,1.5377,1.5389,1.542,1.548,1.5495,1.5513,1.5577,1.5614,1.5637,1.563,1.5647,1.565,1.5663,1.563,1.5626,1.5623,1.5611,1.5606,1.5665,1.5665,1.5666,1.5666,0,1.5161,1.5189,1.5193,1.5251,1.5276,1.5293,1.5349,1.5367,1.54,1.5437,1.5462,1.5508,1.5548,1.5557,1.5589,1.5584,1.5592,1.5619,1.565,1.5612,1.5602,1.5598,1.566,1.5661,1.5662,1.5663,0,0,1.5082,1.517,1.517,1.5195,1.5258,1.5279,1.5297,1.5338,1.5351,1.539,1.5405,1.5446,1.5471,1.5497,1.5533,1.5537,1.5507,1.5563,1.5565,1.5549,1.5501,1.5478,1.5472,1.553,1.553,1.5529,1.5496,0,1.5053,1.5091,1.5141,1.516,1.5185,1.5239,1.5255,1.5293,1.5328,1.5351,1.5389,1.5416,1.5449,1.5464,1.547,1.551,1.5498,1.5513,1.5542,1.5542,1.5526,1.5467,1.5444,1.541,1.5492,1.5492,1.5491,0,1.5025,1.5061,1.5083,1.5141,1.5153,1.5166,1.5205,1.5229,1.5272,1.5297,1.5324,1.5363,1.5382,1.541,1.5436,1.5445,1.5459,1.548,1.548,1.5483,1.5513,1.5466,1.5401,1.5395,1.5486,1.5487,1.5487,0,1.4961,1.5016,1.5035,1.5056,1.5124,1.5132,1.516,1.5205,1.5225,1.5259,1.5272,1.5308,1.5326,1.5351,1.5398,1.5415,1.5416,1.545,1.5435,1.5433,1.5432,1.5431,1.5365,1.5444,1.5445,1.5445,1.5445,0,1.4922,1.4933,1.5007,1.5019,1.5032,1.5088,1.5098,1.5131,1.517,1.5187,1.5237,1.5251,1.5313,1.5333,1.537,1.5383,1.5392,1.541,1.5419,1.5404,1.5402,1.5413,1.5416,1.5443,1.5444,1.5444,1.5444,0,1.4853,1.4904,1.4929,1.4991,1.5007,1.5013,1.5066,1.5077,1.5115,1.5135,1.5143,1.5201,1.5228,1.5277,1.5318,1.5342,1.5346,1.5364,1.5332,1.5337,1.5318,1.5318,1.5257,1.525,1.5335,1.5334,1.5334,0,1.4824,1.4834,1.4897,1.4912,1.4939,1.4964,1.4984,1.5039,1.5058,1.5107,1.5112,1.5143,1.5171,1.5211,1.5254,1.5285,1.5302,1.5278,1.5307,1.529,1.5298,1.5296,1.5295,1.5271,1.5269,1.5269,1.5268,0,1.4766,1.479,1.4819,1.4855,1.4878,1.4909,1.4943,1.4952,1.5014,1.5032,1.5061,1.5082,1.5123,1.5152,1.5189,1.5216,1.525,1.5259,1.5256,1.524,1.522,1.5228,1.5311,1.5259,1.526,1.5261,1.5261,1.5262,1.4715,1.4724,1.4769,1.4798,1.4829,1.4859,1.4872,1.491,1.4936,1.4974,1.5005,1.503,1.507,1.5123,1.5148,1.5166,1.5183,1.518,1.5179,1.5177,1.517,1.5219,1.5174,1.5174,1.5174,1.5174,1.5175,0,1.4656,1.4688,1.4714,1.4759,1.4781,1.4814,1.4851,1.4867,1.4889,1.4924,1.495,1.4981,1.5009,1.5054,1.5085,1.5091,1.5107,1.5097,1.5096,1.5101,1.5155,1.5152,1.5083,1.5083,1.5083,1.5083,1.5083,1.5083,1.4629,1.4645,1.4674,1.4706,1.4737,1.4762,1.4781,1.4807,1.4835,1.4868,1.4891,1.4921,1.496,1.4993,1.5019,1.5032,1.5039,1.5023,1.504,1.5089,1.5097,1.5106,1.5103,1.5025,1.5025,1.4984,1.4984,1.4983]}]]